CW9520 Weather Reports


time (UTC)temp
F
wind
direction
speed
knots
gust
knots
rain 1hr
in
rain 24hr
in
rain mn
in
humidity
%
barometer
mb
20260507014516 71 312 2.6 8.7 0.00 0.00 0.00 57 1017.1
20260507013516 72 302 2.6 7.0 0.00 0.00 0.00 55 1017.0
20260507012516 72 323 1.7 7.0 0.00 0.00 0.00 56 1017.0
20260507011517 72 304 3.5 8.7 0.00 0.00 0.00 56 1016.9
20260507010517 73 309 2.6 8.7 0.00 0.00 0.00 54 1017.0
20260507005516 73 317 1.7 12.2 0.00 0.00 0.00 53 1016.9
20260507004517 74 294 1.7 7.0 0.00 0.00 0.00 53 1016.8
20260507003557 74 335 2.6 8.7 0.00 0.00 0.00 52 1016.7
20260507002516 75 312 2.6 7.8 0.00 0.00 0.00 52 1016.8
20260507001516 75 302 2.6 9.6 0.00 0.00 0.00 51 1016.8
20260507000516 75 320 3.5 9.6 0.00 0.00 0.00 51 1016.8
20260506235516 76 283 2.6 8.7 0.00 0.00 0.00 50 1016.8
20260506234516 76 323 3.5 8.7 0.00 0.00 0.00 50 1016.8
20260506233516 76 331 2.6 7.0 0.00 0.00 0.00 50 1016.8
20260506232516 76 315 2.6 7.8 0.00 0.00 0.00 50 1016.8
20260506231515 76 274 1.7 7.0 0.00 0.00 0.00 49 1016.8
20260506230536 76 311 2.6 7.8 0.00 0.00 0.00 49 1017.0
20260506225517 76 329 2.6 9.6 0.00 0.00 0.00 48 1017.0
20260506224536 76 288 1.7 7.8 0.00 0.00 0.00 49 1017.1
20260506223516 76 247 3.5 8.7 0.00 0.00 0.00 48 1017.2
20260506222516 76 289 3.5 7.8 0.00 0.00 0.00 49 1017.3
20260506221516 75 301 1.7 8.7 0.00 0.00 0.00 50 1017.4
20260506220536 75 312 2.6 7.0 0.00 0.00 0.00 51 1017.6
20260506215537 75 351 2.6 7.0 0.00 0.00 0.00 49 1017.7
20260506214516 74 342 2.6 7.8 0.00 0.00 0.00 51 1017.9
20260506213515 73 275 1.7 6.1 0.00 0.00 0.00 51 1018.0
20260506212516 73 306 2.6 7.0 0.00 0.00 0.00 52 1018.2
20260506211536 73 311 1.7 7.0 0.00 0.00 0.00 51 1018.3
20260506210516 73 5 1.7 7.8 0.00 0.00 0.00 52 1018.4
20260506205515 72 297 1.7 7.0 0.00 0.00 0.00 52 1018.5
20260506204516 72 270 1.7 7.0 0.00 0.00 0.00 54 1018.5
20260506203516 71 288 1.7 7.8 0.00 0.00 0.00 54 1018.7
20260506202516 71 299 2.6 7.8 0.00 0.00 0.00 55 1018.8
20260506201515 71 295 1.7 6.1 0.00 0.00 0.00 55 1018.8
20260506200515 70 34 2.6 7.0 0.00 0.00 0.00 56 1018.9
20260506195516 70 252 1.7 6.1 0.00 0.00 0.00 57 1018.9
20260506194515 69 24 2.6 5.2 0.00 0.00 0.00 57 1019.0
20260506193516 69 337 2.6 6.1 0.00 0.00 0.00 58 1019.1
20260506192516 69 278 1.7 4.3 0.00 0.00 0.00 59 1019.3
20260506191515 68 291 2.6 7.0 0.00 0.00 0.00 59 1019.4
20260506190516 67 73 0.9 4.3 0.00 0.00 0.00 60 1019.4
20260506185517 67 306 1.7 7.8 0.00 0.00 0.00 61 1019.5
20260506184516 67 298 2.6 6.1 0.00 0.00 0.00 61 1019.5
20260506183516 66 310 2.6 7.8 0.00 0.00 0.00 63 1019.6
20260506182516 66 346 1.7 6.1 0.00 0.00 0.00 63 1019.7
20260506181515 65 310 1.7 6.1 0.00 0.00 0.00 65 1019.8
20260506180517 65 304 1.7 7.0 0.00 0.00 0.00 65 1019.7
20260506175536 64 247 0.9 4.3 0.00 0.00 0.00 65 1019.8
20260506174516 65 279 1.7 4.3 0.00 0.00 0.00 65 1019.8
20260506173515 64 292 1.7 6.1 0.00 0.00 0.00 66 1019.8
20260506172517 64 238 2.6 7.0 0.00 0.00 0.00 66 1019.8
20260506171616 64 337 1.7 7.0 0.00 0.00 0.00 67 1019.8
20260506170515 63 355 1.7 4.3 0.00 0.00 0.00 68 1019.8
20260506165515 62 242 0.9 3.5 0.00 0.00 0.00 69 1019.8
20260506164516 62 298 1.7 4.3 0.00 0.00 0.00 69 1019.9
20260506163515 61 281 1.7 3.5 0.00 0.00 0.00 71 1019.9
20260506162515 60 281 0.9 3.5 0.00 0.00 0.00 73 1020.0
20260506161516 60 303 1.7 4.3 0.00 0.00 0.00 73 1020.1
20260506160515 60 341 1.7 4.3 0.00 0.00 0.00 74 1020.0
20260506155535 59 337 0.9 4.3 0.00 0.00 0.00 75 1020.0
20260506154536 59 253 0.9 2.6 0.00 0.00 0.00 76 1020.0
20260506153556 58 287 0.9 3.5 0.00 0.00 0.00 76 1020.0
20260506152536 58 223 0.0 1.7 0.00 0.00 0.00 78 1020.0
20260506151537 58 230 0.9 2.6 0.00 0.00 0.00 78 1020.0
20260506150515 57 343 0.9 2.6 0.00 0.00 0.00 78 1020.0
20260506145516 57 352 0.9 3.5 0.00 0.00 0.00 78 1020.1
20260506144535 57 0.0 0.0 0.00 0.00 0.00 79 1020.1
20260506143515 57 0.0 1.7 0.00 0.00 0.00 79 1020.1
20260506142516 57 0.0 0.0 0.00 0.00 0.00 79 1020.0
20260506141515 57 296 0.0 3.5 0.00 0.00 0.00 79 1020.0
20260506140515 57 329 0.0 2.6 0.00 0.00 0.00 78 1019.8
20260506135516 57 336 0.0 3.5 0.00 0.00 0.00 79 1019.6
20260506134515 57 301 0.0 1.7 0.00 0.00 0.00 79 1019.4
20260506133516 57 0.0 0.0 0.00 0.00 0.00 79 1019.3
20260506132516 56 306 0.0 0.9 0.00 0.00 0.00 79 1019.2
20260506131516 57 0.0 0.9 0.00 0.00 0.00 79 1019.1
20260506130515 57 0.0 0.0 0.00 0.00 0.00 79 1019.0
20260506125516 57 0.0 0.0 0.00 0.00 0.00 79 1018.9
20260506124516 57 306 0.0 1.7 0.00 0.00 0.00 79 1018.9
20260506123515 57 306 0.0 0.9 0.00 0.00 0.00 79 1018.9
20260506122516 57 0.0 0.0 0.00 0.00 0.00 79 1018.9
20260506121515 57 0.0 0.0 0.00 0.00 0.00 80 1018.9
20260506120515 57 0.0 0.0 0.00 0.00 0.00 81 1018.8
20260506115515 57 0.0 0.0 0.00 0.00 0.00 81 1018.7
20260506114516 57 0.0 0.0 0.00 0.00 0.00 80 1018.6
20260506113515 57 0.0 0.0 0.00 0.00 0.00 80 1018.5
20260506112515 57 0.0 0.0 0.00 0.00 0.00 80 1018.5
20260506111515 57 0.0 0.0 0.00 0.00 0.00 80 1018.5
20260506110516 57 0.0 0.0 0.00 0.00 0.00 80 1018.5
20260506105515 57 0.0 0.0 0.00 0.00 0.00 79 1018.5
20260506104515 57 0.0 0.0 0.00 0.00 0.00 79 1018.4
20260506103515 57 0.0 0.0 0.00 0.00 0.00 79 1018.4
20260506102536 57 0.0 0.0 0.00 0.00 0.00 79 1018.4
20260506101516 57 0.0 0.0 0.00 0.00 0.00 79 1018.4
20260506100515 57 0.0 0.0 0.00 0.00 0.00 78 1018.4
20260506095536 57 0.0 0.0 0.00 0.00 0.00 78 1018.4
20260506094515 57 0.0 0.0 0.00 0.00 0.00 78 1018.4
20260506093515 57 306 0.0 1.7 0.00 0.00 0.00 78 1018.5
20260506092515 57 306 0.0 1.7 0.00 0.00 0.00 78 1018.6
20260506091536 57 306 0.0 0.9 0.00 0.00 0.00 78 1018.6
20260506090536 57 306 0.0 0.9 0.00 0.00 0.00 78 1018.6
20260506085615 57 306 0.0 0.9 0.00 0.00 0.00 78 1018.4
20260506084515 57 306 0.0 2.6 0.00 0.00 0.00 77 1018.4
20260506083636 57 309 0.9 3.5 0.00 0.00 0.00 77 1018.4
20260506082515 57 0.0 0.0 0.00 0.00 0.00 77 1018.5
20260506081515 57 0.0 0.0 0.00 0.00 0.00 77 1018.5
20260506080515 57 265 0.0 1.7 0.00 0.00 0.00 76 1018.4
20260506073516 57 299 0.0 1.7 0.00 0.00 0.00 75 1018.2
20260506072557 57 301 0.9 3.5 0.00 0.00 0.00 75 1018.1
20260506071535 57 0.0 1.7 0.00 0.00 0.00 75 1018.0
20260506070515 57 237 0.0 3.5 0.00 0.00 0.00 75 1017.9
20260506062516 58 280 0.9 2.6 0.00 0.00 0.00 74 1017.7
20260506061557 58 286 0.0 2.6 0.00 0.00 0.00 75 1017.5
20260506060517 58 326 0.0 1.7 0.00 0.00 0.00 74 1017.4
20260506050516 59 287 0.0 1.7 0.00 0.00 0.00 71 1017.1
20260506044536 60 298 0.9 2.6 0.00 0.00 0.00 70 1016.9
20260506043537 60 297 0.0 0.9 0.00 0.00 0.00 71 1016.8
20260506042517 60 297 0.0 2.6 0.00 0.00 0.00 70 1016.8
20260506041516 60 310 0.0 0.9 0.00 0.00 0.00 71 1016.6
20260506040516 60 310 0.9 2.6 0.00 0.00 0.00 70 1016.5
20260506035516 60 310 0.9 2.6 0.00 0.00 0.00 70 1016.4
20260506034516 60 301 0.0 2.6 0.00 0.00 0.00 70 1016.2
20260506033516 60 297 0.9 2.6 0.00 0.00 0.00 70 1016.0
20260506032516 60 253 0.9 2.6 0.00 0.00 0.00 70 1015.9
20260506031516 60 300 0.9 2.6 0.00 0.00 0.00 70 1015.9
20260506030515 60 299 0.0 2.6 0.00 0.00 0.00 70 1015.7
20260506025516 60 296 0.9 3.5 0.00 0.00 0.00 70 1015.5
20260506024516 61 307 0.9 3.5 0.00 0.00 0.00 70 1015.5
20260506023516 61 320 0.0 1.7 0.00 0.00 0.00 69 1015.4
20260506022515 61 302 0.0 1.7 0.00 0.00 0.00 68 1015.3
20260506021536 61 302 0.0 0.9 0.00 0.00 0.00 68 1015.2
20260506020516 61 302 0.0 1.7 0.00 0.00 0.00 68 1015.4
20260506015517 61 302 0.0 0.9 0.00 0.00 0.00 67 1015.4